Location: Cudham
(51.3000°N, 0.0667°E)
Time: 23:24:01
(UTC+00:00)

Cosmos 2058 Rocket - Pass Details

Date: 19 May 2025
Orbit: 604 x 634 km, 82.5° (Epoch: 18 June)

Event Time Altitude Azimuth Distance (km) Brightness Sun altitude
Rises 20:37:24 0° 180° (S) 2,918 6.1 -6.5°
Reaches altitude 10° 20:39:39 10° 178° (S) 2,012 5.3 -6.8°
Maximum altitude 20:44:04 66° 97° (E) 695 3.1 -7.3°
Drops below altitude 10° 20:48:30 10° 16° (NNE) 2,016 6.1 -7.7°
Sets 20:50:45 0° 13° (NNE) 2,923 7.0 -8.0°
